Regional Weather Roundup
Issued by NWS Goodland, KS

Home | Current Version | Previous Version | Graphics & Text | Print | Product List | Glossary On
Versions: 1 2 3 4 5 6 7 8 9 10 11 12 13 14 15 16 17 18 19 20 21 22 23 24 25 26 27 28 29 30 31 32 33 34 35 36 37 38 39 40 41 42 43 44 45 46 47 48 49 50
655
ASUS43 KGLD 022008
RWRGLD

GOODLAND FORECAST AREA HOURLY WEATHER ROUNDUP
NATIONAL WEATHER SERVICE GOODLAND KS
100 PM MST FRI DEC 02 2016

...OFFICIAL OBSERVATIONS...

CITY           SKY/WX    TMP DP  RH WIND       PRES   REMARKS
GOODLAND KS    CLOUDY    40  14  34 CALM      30.22S
HILL CITY KS   MOSUNNY   45  19  35 CALM      30.25F
IMPERIAL NEB   MOSUNNY   42  23  46 N3        30.22F
MCCOOK NEB     CLOUDY    41  23  48 CALM      30.24F
AKRON CO       CLOUDY    37  17  44 VRB6      30.20S
BURLINGTON CO  CLOUDY    40  13  33 SE3       30.22S
LIMON CO       CLOUDY    33  17  51 SE12      30.18F
$$

...UNOFFICIAL OBSERVATIONS...

CITY           SKY/WX    TMP DP  RH WIND       PRES   REMARKS
COLBY KS       PTSUNNY   45  19  36 CALM      30.24S
LENORA KS        N/A     45  32  60 MISG        N/A
NORTON KS      SUNNY     43  18  36 N3        30.23F
SHARON SPRINGS   N/A     42  17  35 CALM        N/A
TRENTON NEB      N/A     40  32  73 CALM        N/A
KIT CARSON CO    N/A     39  19  44 CALM        N/A
YUMA CO        PTSUNNY   36  18  48 SE5       30.21S
$$




USA.gov is the U.S. government's official web portal to all federal, state and local government web resources and services.